Time,TemperatureF,DewpointF,PressureIn,WindDirection,WindDirectionDegrees,WindSpeedMPH,WindSpeedGustMPH,Humidity,HourlyPrecipIn,Conditions,Clouds,dailyrainin,SoftwareType,DateUTC
2013-08-03 00:02:00,84.0,-99.9,30.07,South,179,4.0,5.0,-999,-99.99,,,-99.99,,2013-08-03 04:02:00,
2013-08-03 00:12:00,84.0,-99.9,30.06,South,176,4.0,6.0,-999,-99.99,,,-99.99,,2013-08-03 04:12:00,
2013-08-03 00:22:00,84.0,-99.9,30.07,South,174,4.0,7.0,-999,-99.99,,,-99.99,,2013-08-03 04:22:00,
2013-08-03 00:43:00,84.0,-99.9,30.06,South,172,5.0,8.0,-999,-99.99,,,-99.99,,2013-08-03 04:43:00,
2013-08-03 01:02:00,84.0,-99.9,30.06,SSE,166,4.0,7.0,-999,-99.99,,,-99.99,,2013-08-03 05:02:00,
2013-08-03 01:12:00,84.0,-99.9,30.06,South,172,4.0,9.0,-999,-99.99,,,-99.99,,2013-08-03 05:12:00,
2013-08-03 01:32:00,83.0,-99.9,30.05,South,185,5.0,9.0,-999,-99.99,,,-99.99,,2013-08-03 05:32:00,
2013-08-03 01:43:00,83.0,-99.9,30.05,South,191,4.0,11.0,-999,-99.99,,,-99.99,,2013-08-03 05:43:00,
2013-08-03 01:53:00,83.0,-99.9,30.05,South,189,5.0,9.0,-999,-99.99,,,-99.99,,2013-08-03 05:53:00,
2013-08-03 02:02:00,83.0,-99.9,30.05,South,188,6.0,9.0,-999,-99.99,,,-99.99,,2013-08-03 06:02:00,
2013-08-03 02:33:00,83.0,-99.9,30.04,SSW,194,4.0,10.0,-999,-99.99,,,-99.99,,2013-08-03 06:33:00,
2013-08-03 02:42:00,83.0,-99.9,30.04,SSW,192,4.0,8.0,-999,-99.99,,,-99.99,,2013-08-03 06:42:00,
2013-08-03 02:52:00,83.0,-99.9,30.04,SSW,199,4.0,7.0,-999,-99.99,,,-99.99,,2013-08-03 06:52:00,
2013-08-03 03:02:00,83.0,-99.9,30.04,SSW,193,3.0,6.0,-999,-99.99,,,-99.99,,2013-08-03 07:02:00,
2013-08-03 03:12:00,83.0,-99.9,30.04,SSW,194,4.0,8.0,-999,-99.99,,,-99.99,,2013-08-03 07:12:00,
2013-08-03 03:32:00,83.0,-99.9,30.04,South,185,4.0,7.0,-999,-99.99,,,-99.99,,2013-08-03 07:32:00,
2013-08-03 03:43:00,83.0,-99.9,30.04,South,182,2.0,7.0,-999,-99.99,,,-99.99,,2013-08-03 07:43:00,
2013-08-03 03:53:00,83.0,-99.9,30.03,South,189,4.0,9.0,-999,-99.99,,,-99.99,,2013-08-03 07:53:00,
2013-08-03 04:02:00,83.0,-99.9,30.03,South,188,3.0,6.0,-999,-99.99,,,-99.99,,2013-08-03 08:02:00,
2013-08-03 04:12:00,83.0,-99.9,30.03,South,185,2.0,5.0,-999,-99.99,,,-99.99,,2013-08-03 08:12:00,
2013-08-03 04:22:00,83.0,-99.9,30.03,SSW,204,4.0,7.0,-999,-99.99,,,-99.99,,2013-08-03 08:22:00,
2013-08-03 04:32:00,83.0,-99.9,30.03,South,178,3.0,5.0,-999,-99.99,,,-99.99,,2013-08-03 08:32:00,
2013-08-03 04:43:00,83.0,-99.9,30.03,South,190,2.0,4.0,-999,-99.99,,,-99.99,,2013-08-03 08:43:00,
2013-08-03 05:02:00,83.0,-99.9,30.03,WSW,253,4.0,6.0,-999,-99.99,,,-99.99,,2013-08-03 09:02:00,
2013-08-03 05:12:00,83.0,-99.9,30.04,SW,218,3.0,6.0,-999,-99.99,,,-99.99,,2013-08-03 09:12:00,
2013-08-03 05:22:00,83.0,-99.9,30.03,SSW,202,3.0,5.0,-999,-99.99,,,-99.99,,2013-08-03 09:22:00,
2013-08-03 05:32:00,83.0,-99.9,30.03,SSW,210,2.0,4.0,-999,-99.99,,,-99.99,,2013-08-03 09:32:00,
2013-08-03 05:43:00,83.0,-99.9,30.04,SSW,203,3.0,6.0,-999,-99.99,,,-99.99,,2013-08-03 09:43:00,
2013-08-03 05:53:00,83.0,-99.9,30.04,SSW,204,3.0,5.0,-999,-99.99,,,-99.99,,2013-08-03 09:53:00,
2013-08-03 06:02:00,83.0,-99.9,30.04,South,179,2.0,4.0,-999,-99.99,,,-99.99,,2013-08-03 10:02:00,
2013-08-03 06:22:00,83.0,-99.9,30.04,South,185,3.0,4.0,-999,-99.99,,,-99.99,,2013-08-03 10:22:00,
2013-08-03 06:43:00,82.0,-99.9,30.04,South,173,2.0,4.0,-999,-99.99,,,-99.99,,2013-08-03 10:43:00,
2013-08-03 07:32:00,82.0,-99.9,30.06,South,184,1.0,2.0,-999,-99.99,,,-99.99,,2013-08-03 11:32:00,
2013-08-03 07:43:00,82.0,-99.9,30.06,SSE,165,3.0,4.0,-999,-99.99,,,-99.99,,2013-08-03 11:43:00,
2013-08-03 08:03:00,83.0,-99.9,30.06,SSE,161,3.0,5.0,-999,-99.99,,,-99.99,,2013-08-03 12:03:00,
2013-08-03 09:02:00,85.0,-99.9,30.08,SSE,157,6.0,9.0,-999,-99.99,,,-99.99,,2013-08-03 13:02:00,
2013-08-03 09:22:00,86.0,-99.9,30.08,SSE,167,6.0,9.0,-999,-99.99,,,-99.99,,2013-08-03 13:22:00,
2013-08-03 09:52:00,87.0,-99.9,30.09,SSE,168,4.0,10.0,-999,-99.99,,,-99.99,,2013-08-03 13:52:00,
2013-08-03 10:02:00,87.0,-99.9,30.09,SE,143,5.0,8.0,-999,-99.99,,,-99.99,,2013-08-03 14:02:00,
2013-08-03 10:33:00,86.0,-99.9,30.10,SSE,158,7.0,11.0,-999,-99.99,,,-99.99,,2013-08-03 14:33:00,
2013-08-03 10:42:00,87.0,-99.9,30.11,SSE,153,7.0,12.0,-999,-99.99,,,-99.99,,2013-08-03 14:42:00,
2013-08-03 10:52:00,87.0,-99.9,30.11,South,169,5.0,9.0,-999,-99.99,,,-99.99,,2013-08-03 14:52:00,
2013-08-03 11:02:00,88.0,-99.9,30.11,SSE,167,6.0,10.0,-999,-99.99,,,-99.99,,2013-08-03 15:02:00,
2013-08-03 11:12:00,87.0,-99.9,30.11,South,175,6.0,11.0,-999,-99.99,,,-99.99,,2013-08-03 15:12:00,
2013-08-03 11:23:00,88.0,-99.9,30.12,South,170,6.0,10.0,-999,-99.99,,,-99.99,,2013-08-03 15:23:00,
2013-08-03 11:32:00,88.0,-99.9,30.11,South,174,5.0,11.0,-999,-99.99,,,-99.99,,2013-08-03 15:32:00,
2013-08-03 11:43:00,87.0,-99.9,30.11,SE,142,7.0,11.0,-999,-99.99,,,-99.99,,2013-08-03 15:43:00,
2013-08-03 11:53:00,87.0,-99.9,30.11,SE,140,6.0,12.0,-999,-99.99,,,-99.99,,2013-08-03 15:53:00,
2013-08-03 12:02:00,88.0,-99.9,30.11,South,178,6.0,11.0,-999,-99.99,,,-99.99,,2013-08-03 16:02:00,
2013-08-03 12:13:00,88.0,-99.9,30.11,South,171,7.0,11.0,-999,-99.99,,,-99.99,,2013-08-03 16:13:00,
2013-08-03 12:23:00,88.0,-99.9,30.11,SSE,162,6.0,13.0,-999,-99.99,,,-99.99,,2013-08-03 16:23:00,
2013-08-03 12:33:00,88.0,-99.9,30.11,SSE,162,7.0,13.0,-999,-99.99,,,-99.99,,2013-08-03 16:33:00,
2013-08-03 12:43:00,88.0,-99.9,30.11,SSE,155,6.0,11.0,-999,-99.99,,,-99.99,,2013-08-03 16:43:00,
2013-08-03 12:53:00,87.0,-99.9,30.11,SSE,161,6.0,12.0,-999,-99.99,,,-99.99,,2013-08-03 16:53:00,
2013-08-03 13:03:00,88.0,-99.9,30.11,SSE,159,6.0,12.0,-999,-99.99,,,-99.99,,2013-08-03 17:03:00,
2013-08-03 13:12:00,89.0,-99.9,30.11,South,178,6.0,11.0,-999,-99.99,,,-99.99,,2013-08-03 17:12:00,
2013-08-03 13:33:00,88.0,-99.9,30.11,SSE,159,6.0,11.0,-999,-99.99,,,-99.99,,2013-08-03 17:33:00,
2013-08-03 13:43:00,88.0,-99.9,30.10,South,173,6.0,11.0,-999,-99.99,,,-99.99,,2013-08-03 17:43:00,
2013-08-03 13:52:00,87.0,-99.9,30.10,SSE,154,6.0,10.0,-999,-99.99,,,-99.99,,2013-08-03 17:52:00,
2013-08-03 14:02:00,88.0,-99.9,30.11,SW,215,3.0,9.0,-999,-99.99,,,-99.99,,2013-08-03 18:02:00,
2013-08-03 14:12:00,88.0,-99.9,30.10,South,172,4.0,9.0,-999,-99.99,,,-99.99,,2013-08-03 18:12:00,
2013-08-03 14:22:00,88.0,-99.9,30.10,SSE,151,5.0,8.0,-999,-99.99,,,-99.99,,2013-08-03 18:22:00,
2013-08-03 14:32:00,89.0,-99.9,30.10,SSE,165,4.0,10.0,-999,-99.99,,,-99.99,,2013-08-03 18:32:00,
2013-08-03 14:43:00,88.0,-99.9,30.10,SSE,154,6.0,11.0,-999,-99.99,,,-99.99,,2013-08-03 18:43:00,
2013-08-03 14:53:00,89.0,-99.9,30.09,South,185,4.0,10.0,-999,-99.99,,,-99.99,,2013-08-03 18:53:00,
2013-08-03 15:03:00,88.0,-99.9,30.09,SSE,159,5.0,9.0,-999,-99.99,,,-99.99,,2013-08-03 19:03:00,
2013-08-03 15:12:00,89.0,-99.9,30.09,SSE,167,4.0,9.0,-999,-99.99,,,-99.99,,2013-08-03 19:12:00,
2013-08-03 15:22:00,89.0,-99.9,30.09,SSE,166,6.0,9.0,-999,-99.99,,,-99.99,,2013-08-03 19:22:00,
2013-08-03 15:33:00,91.0,-99.9,30.09,SW,223,3.0,7.0,-999,-99.99,,,-99.99,,2013-08-03 19:33:00,
2013-08-03 15:43:00,89.0,-99.9,30.09,SSE,151,3.0,7.0,-999,-99.99,,,-99.99,,2013-08-03 19:43:00,
2013-08-03 15:53:00,91.0,-99.9,30.09,SW,222,2.0,6.0,-999,-99.99,,,-99.99,,2013-08-03 19:53:00,
2013-08-03 16:02:00,92.0,-99.9,30.09,WSW,245,3.0,8.0,-999,-99.99,,,-99.99,,2013-08-03 20:02:00,
2013-08-03 16:12:00,91.0,-99.9,30.09,SW,214,4.0,6.0,-999,-99.99,,,-99.99,,2013-08-03 20:12:00,
2013-08-03 16:32:00,91.0,-99.9,30.08,SW,226,2.0,5.0,-999,-99.99,,,-99.99,,2013-08-03 20:32:00,
2013-08-03 16:42:00,91.0,-99.9,30.09,SSW,202,3.0,5.0,-999,-99.99,,,-99.99,,2013-08-03 20:42:00,
2013-08-03 16:52:00,91.0,-99.9,30.09,WSW,252,3.0,6.0,-999,-99.99,,,-99.99,,2013-08-03 20:52:00,
2013-08-03 17:02:00,91.0,-99.9,30.09,West,259,3.0,7.0,-999,-99.99,,,-99.99,,2013-08-03 21:02:00,
2013-08-03 17:12:00,90.0,-99.9,30.09,SW,215,4.0,5.0,-999,-99.99,,,-99.99,,2013-08-03 21:12:00,
2013-08-03 17:32:00,90.0,-99.9,30.09,West,270,3.0,5.0,-999,-99.99,,,-99.99,,2013-08-03 21:32:00,
2013-08-03 17:42:00,90.0,-99.9,30.09,West,268,4.0,6.0,-999,-99.99,,,-99.99,,2013-08-03 21:42:00,
2013-08-03 17:52:00,90.0,-99.9,30.08,WSW,242,2.0,5.0,-999,-99.99,,,-99.99,,2013-08-03 21:52:00,
2013-08-03 18:02:00,90.0,-99.9,30.08,West,272,3.0,5.0,-999,-99.99,,,-99.99,,2013-08-03 22:02:00,
2013-08-03 18:12:00,89.0,-99.9,30.08,West,279,3.0,5.0,-999,-99.99,,,-99.99,,2013-08-03 22:12:00,
2013-08-03 18:22:00,89.0,-99.9,30.07,SSE,149,1.0,3.0,-999,-99.99,,,-99.99,,2013-08-03 22:22:00,
2013-08-03 18:33:00,89.0,-99.9,30.07,WNW,292,2.0,3.0,-999,-99.99,,,-99.99,,2013-08-03 22:33:00,
2013-08-03 18:43:00,89.0,-99.9,30.07,NW,322,2.0,2.0,-999,-99.99,,,-99.99,,2013-08-03 22:43:00,
2013-08-03 18:52:00,88.0,-99.9,30.07,NW,322,2.0,3.0,-999,-99.99,,,-99.99,,2013-08-03 22:52:00,
2013-08-03 19:02:00,88.0,-99.9,30.07,NNW,347,2.0,3.0,-999,-99.99,,,-99.99,,2013-08-03 23:02:00,
2013-08-03 19:12:00,88.0,-99.9,30.07,NW,324,2.0,3.0,-999,-99.99,,,-99.99,,2013-08-03 23:12:00,
2013-08-03 19:22:00,86.0,-99.9,30.08,NE,39,1.0,3.0,-999,-99.99,,,-99.99,,2013-08-03 23:22:00,
2013-08-03 19:32:00,87.0,-99.9,30.08,North,4,0.0,3.0,-999,-99.99,,,-99.99,,2013-08-03 23:32:00,
2013-08-03 19:43:00,86.0,-99.9,30.08,NNE,21,2.0,4.0,-999,-99.99,,,-99.99,,2013-08-03 23:43:00,
2013-08-03 19:52:00,86.0,-99.9,30.08,NNE,27,1.0,3.0,-999,-99.99,,,-99.99,,2013-08-03 23:52:00,
2013-08-03 20:03:00,86.0,-99.9,30.08,North,8,1.0,2.0,-999,-99.99,,,-99.99,,2013-08-04 00:03:00,
2013-08-03 20:12:00,86.0,-99.9,30.08,ENE,61,2.0,3.0,-999,-99.99,,,-99.99,,2013-08-04 00:12:00,
2013-08-03 20:32:00,85.0,-99.9,30.09,East,97,1.0,4.0,-999,-99.99,,,-99.99,,2013-08-04 00:32:00,
2013-08-03 20:42:00,85.0,-99.9,30.09,SE,131,1.0,2.0,-999,-99.99,,,-99.99,,2013-08-04 00:42:00,
2013-08-03 20:53:00,85.0,-99.9,30.09,SE,137,2.0,4.0,-999,-99.99,,,-99.99,,2013-08-04 00:53:00,
2013-08-03 21:02:00,85.0,-99.9,30.09,SE,146,3.0,4.0,-999,-99.99,,,-99.99,,2013-08-04 01:02:00,
2013-08-03 21:12:00,85.0,-99.9,30.09,SE,135,3.0,4.0,-999,-99.99,,,-99.99,,2013-08-04 01:12:00,
2013-08-03 21:22:00,85.0,-99.9,30.10,SE,146,1.0,3.0,-999,-99.99,,,-99.99,,2013-08-04 01:22:00,
2013-08-03 21:32:00,85.0,-99.9,30.10,ESE,123,3.0,3.0,-999,-99.99,,,-99.99,,2013-08-04 01:32:00,
2013-08-03 21:42:00,85.0,-99.9,30.10,ESE,117,2.0,3.0,-999,-99.99,,,-99.99,,2013-08-04 01:42:00,
2013-08-03 21:53:00,85.0,-99.9,30.11,East,98,2.0,3.0,-999,-99.99,,,-99.99,,2013-08-04 01:53:00,
2013-08-03 22:03:00,85.0,-99.9,30.10,ESE,122,2.0,2.0,-999,-99.99,,,-99.99,,2013-08-04 02:03:00,
2013-08-03 22:12:00,85.0,-99.9,30.11,ESE,104,2.0,3.0,-999,-99.99,,,-99.99,,2013-08-04 02:12:00,
2013-08-03 22:22:00,85.0,-99.9,30.11,East,88,2.0,3.0,-999,-99.99,,,-99.99,,2013-08-04 02:22:00,
2013-08-03 22:32:00,85.0,-99.9,30.11,ENE,78,2.0,4.0,-999,-99.99,,,-99.99,,2013-08-04 02:32:00,
2013-08-03 22:42:00,85.0,-99.9,30.11,ENE,68,4.0,5.0,-999,-99.99,,,-99.99,,2013-08-04 02:42:00,
2013-08-03 22:52:00,85.0,-99.9,30.11,ENE,66,3.0,5.0,-999,-99.99,,,-99.99,,2013-08-04 02:52:00,
2013-08-03 23:02:00,85.0,-99.9,30.12,East,88,3.0,5.0,-999,-99.99,,,-99.99,,2013-08-04 03:02:00,
2013-08-03 23:12:00,85.0,-99.9,30.12,East,89,4.0,5.0,-999,-99.99,,,-99.99,,2013-08-04 03:12:00,
2013-08-03 23:32:00,84.0,-99.9,30.12,East,91,3.0,5.0,-999,-99.99,,,-99.99,,2013-08-04 03:32:00,
2013-08-03 23:42:00,84.0,-99.9,30.12,ESE,104,3.0,4.0,-999,-99.99,,,-99.99,,2013-08-04 03:42:00,
2013-08-03 23:52:00,84.0,-99.9,30.12,ESE,105,3.0,5.0,-999,-99.99,,,-99.99,,2013-08-04 03:52:00,